Total_Precipitation_Accumulation
0.01 0.01 0.05 0.09 0.12 0.15 0.16 0.20 0.23 0.25 0.26 0.32 0.44 0.65 0.85 0.94 1.11 1.25 1.25 1.37 1.77 2.18 2.49 2.77 2.92 3.14 3.46 3.78 4.08 4.41 4.92 5.22 5.12 5.15 5.05 4.88 4.54 4.33 3.92 3.46 3.10 3.04 3.05 3.31
0.01 0.03 0.04 0.06 0.07 0.10 0.14 0.16 0.21 0.24 0.27 0.34 0.39 0.61 0.82 0.85 1.04 1.16 1.27 1.44 1.60 1.81 2.29 2.57 2.59 2.83 3.06 3.59 4.12 4.47 4.53 4.52 4.41 4.64 5.04 5.25 5.17 4.63 3.99 3.59 3.45 3.07 3.00 3.15
0.03 0.05 0.04 0.03 0.04 0.06 0.14 0.17 0.21 0.25 0.29 0.40 0.50 0.94 1.05 0.96 1.02 1.09 1.17 1.34 1.48 1.65 1.84 2.16 2.19 2.29 2.51 3.03 3.57 3.73 3.63 3.60 3.49 3.64 4.05 4.35 4.64 4.42 4.12 3.80 3.53 3.11 2.97 2.97
0.03 0.03 0.03 0.04 0.04 0.05 0.10 0.11 0.14 0.21 0.34 0.57 0.60 1.12 1.32 1.30 1.34 1.16 1.17 1.23 1.49 1.64 1.68 1.84 1.90 1.96 2.02 2.17 2.43 2.64 2.87 3.00 3.01 3.06 3.29 3.53 3.82 3.90 3.90 3.85 3.50 3.11 2.80 2.74
0.03 0.03 0.03 0.06 0.06 0.05 0.08 0.08 0.11 0.18 0.32 0.58 0.59 0.84 1.37 1.56 1.55 1.28 1.20 1.19 1.35 1.36 1.43 1.57 1.66 1.67 1.73 1.91 2.16 2.38 2.68 2.86 2.94 2.91 3.00 3.22 3.56 3.62 3.45 3.33 3.39 3.16 2.86 2.58
0.06 0.05 0.06 0.07 0.06 0.05 0.07 0.09 0.16 0.25 0.40 0.85 0.71 0.81 1.27 1.46 1.32 1.27 1.13 1.05 1.14 1.09 1.22 1.43 1.53 1.59 1.64 1.74 1.99 2.23 2.48 2.50 2.61 2.67 2.67 2.75 2.98 3.14 3.01 2.86 2.88 2.74 2.61 2.50
0.14 0.13 0.10 0.07 0.07 0.07 0.09 0.17 0.59 1.02 1.21 1.16 0.72 0.84 1.33 1.19 1.03 1.02 1.03 1.08 1.12 1.05 1.04 1.23 1.42 1.43 1.58 1.70 1.82 1.96 2.12 2.24 2.26 2.30 2.25 2.23 2.33 2.49 2.49 2.39 2.44 2.36 2.15 2.05
0.24 0.26 0.17 0.10 0.09 0.11 0.15 0.26 0.76 1.08 1.06 1.04 0.88 1.26 1.47 1.04 0.94 0.94 0.87 0.85 0.86 0.81 0.81 0.93 1.09 1.19 1.33 1.50 1.58 1.70 1.84 1.98 2.07 2.12 2.15 2.13 2.10 2.17 2.26 2.36 2.22 2.17 1.92 1.77
0.17 0.18 0.13 0.09 0.08 0.12 0.24 0.32 0.37 0.59 0.71 1.07 1.30 1.53 1.36 1.06 1.06 0.99 0.95 0.87 0.86 0.85 0.85 0.83 0.91 1.01 1.06 1.17 1.28 1.39 1.54 1.71 1.89 1.89 2.02 2.00 1.88 1.97 2.15 2.27 2.19 2.08 2.05 1.91
0.09 0.12 0.14 0.10 0.12 0.16 0.19 0.25 0.34 0.51 0.78 1.09 1.29 1.69 1.90 1.59 1.38 1.12 1.13 1.04 0.97 0.88 0.77 0.76 0.77 0.80 0.79 0.92 1.19 1.31 1.48 1.64 1.69 1.66 1.61 1.54 1.61 1.80 1.96 1.96 1.90 2.03 2.10 2.11
0.08 0.10 0.14 0.16 0.16 0.18 0.21 0.25 0.33 0.43 0.55 0.87 1.31 1.54 1.35 1.35 1.29 1.24 1.11 1.06 0.99 0.88 0.74 0.73 0.83 0.85 0.83 0.92 1.13 1.17 1.25 1.44 1.51 1.48 1.38 1.37 1.44 1.54 1.64 1.68 1.69 1.83 1.91 1.99
0.10 0.11 0.19 0.23 0.19 0.17 0.19 0.23 0.34 0.53 0.59 0.73 1.07 1.30 0.90 1.01 1.02 0.90 0.85 0.86 0.76 0.74 0.68 0.66 0.78 0.93 1.07 1.19 1.14 1.04 1.07 1.11 1.23 1.28 1.29 1.34 1.36 1.34 1.34 1.40 1.51 1.59 1.64 1.69
0.13 0.18 0.33 0.54 0.52 0.32 0.26 0.22 0.27 0.36 0.47 0.59 0.91 1.21 0.97 0.95 1.02 0.94 0.90 0.90 0.80 0.73 0.69 0.72 0.83 0.90 0.95 1.10 1.24 1.06 1.01 1.09 1.20 1.26 1.34 1.44 1.46 1.39 1.34 1.38 1.42 1.41 1.34 1.37
0.12 0.15 0.29 0.55 0.48 0.36 0.32 0.28 0.30 0.37 0.48 0.55 0.66 0.95 1.05 1.04 1.00 0.98 0.95 0.86 0.83 0.77 0.66 0.70 0.86 1.03 1.04 1.04 1.12 1.02 0.98 1.06 1.21 1.44 1.67 1.70 1.63 1.56 1.48 1.37 1.35 1.32 1.26 1.33
0.13 0.13 0.15 0.20 0.26 0.34 0.38 0.30 0.29 0.32 0.37 0.54 0.54 0.70 0.93 0.99 0.91 0.94 0.98 0.77 0.69 0.77 0.74 0.69 0.80 1.00 1.11 1.13 1.12 1.05 1.08 1.15 1.30 1.56 1.72 1.80 1.83 1.75 1.66 1.52 1.40 1.34 1.35 1.32
0.21 0.19 0.20 0.22 0.30 0.37 0.39 0.32 0.25 0.24 0.25 0.34 0.44 0.66 0.76 0.71 0.78 0.82 0.79 0.78 0.78 0.87 0.84 0.78 0.80 0.87 1.04 1.13 1.18 1.20 1.27 1.32 1.39 1.43 1.49 1.64 1.75 1.76 1.69 1.50 1.41 1.44 1.43 1.39
0.35 0.35 0.33 0.35 0.36 0.44 0.48 0.36 0.30 0.27 0.26 0.37 0.58 0.78 0.76 0.74 0.81 0.76 0.69 0.69 0.83 0.89 0.81 0.77 0.81 0.86 0.93 0.96 1.05 1.29 1.31 1.28 1.30 1.39 1.50 1.66 1.70 1.66 1.59 1.44 1.43 1.44 1.42 1.43
0.33 0.42 0.43 0.47 0.62 0.77 0.53 0.32 0.32 0.35 0.38 0.47 0.59 0.66 0.68 0.67 0.73 0.74 0.67 0.64 0.66 0.72 0.70 0.72 0.79 0.87 0.88 0.84 0.84 0.94 1.09 1.21 1.28 1.35 1.44 1.55 1.58 1.63 1.69 1.62 1.52 1.54 1.55 1.48
0.31 0.46 0.52 0.61 0.79 0.67 0.46 0.40 0.42 0.51 0.59 0.61 0.66 0.69 0.69 0.69 0.80 0.89 0.74 0.65 0.60 0.59 0.64 0.75 0.87 0.86 0.84 0.84 0.84 0.93 1.08 1.24 1.39 1.45 1.47 1.48 1.57 1.73 1.77 1.65 1.61 1.65 1.64 1.53
0.37 0.47 0.65 0.74 0.93 0.88 0.68 0.51 0.46 0.60 1.02 0.76 0.72 0.75 0.77 0.81 1.02 1.09 0.80 0.71 0.69 0.70 0.74 0.72 0.71 0.72 0.78 0.90 0.98 1.05 1.21 1.43 1.53 1.54 1.62 1.67 1.70 1.81 1.94 1.96 1.90 1.82 1.79 1.71
0.80 0.78 0.75 0.87 1.01 0.86 0.64 0.53 0.60 1.05 1.31 0.95 0.87 0.86 0.86 0.96 0.94 0.90 0.80 0.71 0.71 0.73 0.76 0.76 0.81 0.83 0.88 0.93 1.10 1.30 1.41 1.50 1.57 1.61 1.65 1.83 1.91 2.02 2.19 2.35 2.26 2.20 2.12 2.08
1.08 1.15 1.10 1.12 1.28 1.26 0.78 0.65 0.97 1.24 1.04 1.05 1.07 1.01 1.01 0.90 0.76 0.75 0.78 0.73 0.68 0.70 0.82 0.90 1.02 1.04 0.98 0.99 1.13 1.32 1.44 1.50 1.65 1.69 1.77 1.83 1.96 2.06 2.21 2.57 2.57 2.60 2.61 2.44
1.19 1.32 1.44 1.41 1.42 1.16 1.00 1.05 1.09 1.16 1.12 1.13 1.00 0.88 0.90 0.87 0.82 0.85 0.93 0.91 0.80 0.76 0.87 0.94 1.07 1.14 1.16 1.23 1.37 1.55 1.61 1.67 1.74 1.89 2.02 2.07 2.14 2.30 2.42 2.57 2.63 2.68 2.65 2.52
1.15 1.05 1.40 1.55 1.43 1.30 1.17 1.07 1.11 1.27 1.21 1.09 0.95 0.90 0.92 0.92 0.84 0.78 0.82 0.88 0.87 0.83 0.92 1.03 1.13 1.31 1.42 1.49 1.60 1.75 1.86 1.94 2.05 2.17 2.28 2.32 2.36 2.38 2.44 2.60 2.62 2.63 2.61 2.48
1.11 1.09 1.43 1.69 1.62 1.59 1.40 1.11 1.03 1.07 1.04 0.95 0.96 0.93 0.92 0.97 0.91 0.80 0.78 0.80 0.88 1.00 1.09 1.16 1.30 1.46 1.52 1.62 1.71 1.82 2.03 2.22 2.30 2.30 2.29 2.29 2.32 2.44 2.53 2.53 2.52 2.57 2.61 2.60
1.31 1.30 1.61 1.93 1.69 1.65 1.56 1.26 1.10 0.99 0.93 0.92 1.05 1.07 0.98 0.97 0.99 0.94 0.93 0.95 1.00 1.08 1.21 1.33 1.45 1.56 1.64 1.79 1.93 2.02 2.19 2.41 2.59 2.53 2.43 2.44 2.50 2.56 2.55 2.52 2.47 2.50 2.43 2.39